Volver al catálogo

ATLAS CENTAUR R/B

ActivoMEO
NORAD 43341·ROCKET BODY·🇺🇸 United States

Lanzado Apr 14, 2018 desde Cape Canaveral Space Force Station

Loading…

Próximos Pases (próximas 24 horas)

TLE

ActualizadoSource: Space-Track

Época: Sep 13, 2026, 19:48 UTC

1 43341U 18036C   26256.82535722 -.00000140  00000-0  00000-0 0  9994
2 43341   6.9024  63.0770 0443914 209.7282 147.8515  1.08308769 27749

Sigue ATLAS CENTAUR R/B en tiempo real con AllMySat

Download on the App Store